Location: Arleux
(50.3632°N, 2.8721°E)
Time: 12:24:14
(UTC+00:00)

Cosmos 2279 Rocket - Pass Details

Date: 15 December 2019
Orbit: 964 x 979 km, 82.9° (Epoch: 26 January)

Event Time Altitude Azimuth Distance (km) Brightness Sun altitude
Rises 04:49:48 0° 179° (S) 3,645 7.1 -26.1°
Reaches altitude 10° 04:52:17 10° 177° (S) 2,705 6.4 -25.7°
Maximum altitude 04:58:26 70° 95° (E) 1,032 4.2 -24.7°
Drops below altitude 10° 05:04:39 10° 13° (NNE) 2,733 6.4 -23.7°
Sets 05:07:11 0° 12° (NNE) 3,687 7.1 -23.3°
